Weather History for Port Weller, ON

Change the Weather History Date:

Thursday, July 11, 2013

  Actual Average Record
Temperature  
Mean Temperature 71 °F -  
Max Temperature 77 °F - - ()
Min Temperature 65 °F - - ()
Cooling Degree Days 6    
Growing Degree Days 21 (Base 50)    
Moisture  
Dew Point 57 °F    
Average Humidity 60    
Maximum Humidity 74    
Minimum Humidity 39    
Precipitation  
Precipitation 0.00 in - - ()
Sea Level Pressure  
Sea Level Pressure 29.96 in    
Wind  
Wind Speed 11 mph ()    
Max Wind Speed 22 mph    
Max Gust Speed -    
T = Trace of Precipitation, MM = Missing Value Source: Averaged Metar Reports

Daily Weather History Graph

Daily Weather History Graph

Search for Another Location

Airport:

Trip Planner

Search our weather history database for the weather conditions in past years. The results will help you decide how hot, cold, wet, or windy it might be!

Date:

Astronomy

Jul. 11, 2013 Rise Set
Actual Time 5:47 AM EDT 8:57 PM EDT
Civil Twilight 5:12 AM EDT 9:31 PM EDT
Nautical Twilight 4:28 AM EDT 10:16 PM EDT
Astronomical Twilight 3:34 AM EDT 11:09 PM EDT
Moon 9:10 AM EDT (7/11) 10:28 PM EDT (7/11)
Length of Visible Light 16h 18m
Length of Day
15h 09m
Waxing Crescent, 10% of the Moon is Illuminated
Jul 11
Waxing Crescent
Jul 15
First Quarter
Jul 22
Full
Jul 29
Last Quarter
Aug 6
New

Hourly Weather History & Observations

Time (EDT) Temp. Dew Point Humidity Pressure Visibility Wind Dir Wind Speed Gust Speed Precip Events Conditions
12:00 AM 69.8 °F 58.5 °F 67% 29.85 in - ESE 21.9 mph - N/A   Unknown
1:00 AM 68.7 °F 57.4 °F 67% 29.86 in - WNW 18.4 mph - N/A   Unknown
2:00 AM 68 °F 58 °F 61% 29.86 in - NNW 19.6 mph - -  
2:00 AM 68.0 °F 57.6 °F 69% 29.86 in - NNW 19.6 mph - N/A   Unknown
3:00 AM 67.5 °F 57.2 °F 70% 29.88 in - SSE 19.6 mph - N/A   Unknown
4:00 AM 66.9 °F 57.4 °F 71% 29.90 in - WNW 15.0 mph - N/A   Unknown
5:00 AM 66 °F 56 °F 63% 29.90 in - WNW 13.8 mph - -  
5:00 AM 65.7 °F 56.3 °F 72% 29.90 in - WNW 13.8 mph - N/A   Unknown
6:00 AM 65.5 °F 56.8 °F 74% 29.92 in - WNW 13.8 mph - N/A   Unknown
7:00 AM 66.6 °F 56.5 °F 70% 29.95 in - WNW 15.0 mph - N/A   Unknown
8:00 AM 67 °F 56 °F 59% 29.96 in - WNW 15.0 mph - -  
8:00 AM 66.9 °F 56.1 °F 68% 29.96 in - WNW 15.0 mph - N/A   Unknown
9:00 AM 68.2 °F 56.8 °F 67% 29.98 in - WNW 12.7 mph - N/A   Unknown
10:00 AM 69.6 °F 56.3 °F 63% 29.98 in - WNW 10.4 mph - N/A   Unknown
11:00 AM 71 °F 56 °F 48% 29.98 in - WNW 3.5 mph - -  
11:00 AM 70.7 °F 55.6 °F 59% 29.98 in - WNW 3.5 mph - N/A   Unknown
12:00 PM 71.4 °F 55.8 °F 58% 29.99 in - West 3.5 mph - N/A   Unknown
1:00 PM 71.6 °F 55.8 °F 57% 29.99 in - ESE 2.3 mph - N/A   Unknown
2:00 PM 73 °F 56 °F 44% 29.98 in - East 1.2 mph - -  
2:00 PM 73.0 °F 55.8 °F 55% 29.98 in - East 1.2 mph - N/A   Unknown
3:00 PM 74.8 °F 57.0 °F 54% 29.98 in - ESE 2.3 mph - N/A   Unknown
4:00 PM 75.0 °F 54.7 °F 49% 29.98 in - SE 2.3 mph - N/A   Unknown
5:00 PM 76 °F 56 °F 39% 29.98 in - SSE 1.2 mph - -  
5:00 PM 76.1 °F 55.9 °F 50% 29.98 in - SSE 1.2 mph - N/A   Unknown
6:00 PM 76.6 °F 56.7 °F 50% 29.98 in - SSE 2.3 mph - N/A   Unknown
7:00 PM 75.9 °F 55.9 °F 50% 29.99 in - South 2.3 mph - N/A   Unknown
8:00 PM 74 °F 57 °F 45% 30.00 in - Calm Calm - -  
8:00 PM 73.8 °F 57.0 °F 56% 30.00 in - Calm Calm - N/A   Unknown
9:00 PM 71.8 °F 58.5 °F 63% 30.00 in - East 1.2 mph - N/A   Unknown
10:00 PM 71.2 °F 60.1 °F 68% 30.01 in - South 9.2 mph - N/A   Unknown
11:00 PM 70 °F 61 °F 66% 30.02 in - North 15.0 mph - -  
11:00 PM 70.3 °F 61.2 °F 73% 30.02 in - North 15.0 mph - N/A   Unknown